DMSP 5D-2 F14 DEB, 62939

Orbit data source: Space-Track

DMSP 5D-2 F14 DEB, 62939 is space debris in SSO originally from a launch on Fri, 04 Apr 1997 UTC launched from the Air Force Western Test Range (AFWTR). Debris objects in space refer to the collection of defunct objects orbiting the Earth. Examples of debris include non-operational satellites, rocket bodies, and fragments generated from explosions, collisions, or faulty payload assembly.

Loading next visibility...
Identifier
62939, 1997-012K
Orbit
SSO
Country
Flag of USUS
Related business
Manufacturer
LMT/EW
Mission
Spacecraft
Bus & Motor
Unknown
Mass
Unknown
Launch date (UTC)
1997-04-04 (29 years ago)
Launch vehicle
Unknown
Launch site
Air Force Western Test Range (AFWTR)
Object type
Payload
Rocket body
Debris
Shape & HBR
Unknown shape, 0.1 m
Radar Cross Section
Medium (>0.1 m² and <1 m²)

Expand to show TLE details & history
Last TLE update: 10 hours ago

TLE from 10 hours ago
0 DMSP 5D-2 F14 DEB
1 62939U 97012K   26171.41394074  .00001676  00000-0  82706-3 0  9993
2 62939  98.7997 222.2295 0010792  72.0462 288.1889 14.18795680 77483
Epoch: 2026-06-20T09:56Z
TLE epoch observation values (Epoch: 2026-06-20T09:56:04.479Z)
Latitude
-0.00006°
Longitude
164.58194°
Altitude
829.918 km
Speed
7.439 km/s
True Right ascension
14h 48m 55s
True Declination
0° 00' 00"
Sunlit
Object was in full shadow at epoch
Visualization orbit readout
Latitude
Unknown
Longitude
Unknown
Altitude
Unknown
Speed
Unknown
Apparent Right ascension
Unknown
Apparent Declination
Unknown
Sunlit
N/A
Visualization observer readout
Local Sidereal Time
07:17:25
Azimuth
Unknown
Elevation
Unknown
Doppler factor
Unknown
Orbital elements
Apogee altitude
834.368 km
Perigee altitude
818.818 km
Semi-major axis
7,204.73 km
Eccentricity
0.00108
Inclination
98.7997°
RAAN
222.2295°
Arg. of periapsis
72.0462°
True anomaly
288.07136°
Mean anomaly
288.1889°
Eccentric anomaly
288.13014°
Mean motion
3.54909 °/min
Orbital period
101.43 mins
BSTAR
0.00082706
Loading maneuver chart data...
Computing Atmospheric mass density...

Documentation

Showing up to 5 results
|